Dewpoint
-5 -3 -2 -4 -4 -5 -6 -5 -5 -7 -9 -7 -6 -8 -10 -10 -10 -7 -7 -1 1 3 4 5 4 3 2 2 2 2 0 -2 -3 -1 -1 -1 -2 -6 -14 -21 -23 -23 -26 -28
-4 -2 -5 -6 -7 -6 -6 -5 -6 -7 -9 -8 -7 -7 -9 -9 -10 -10 -8 -7 1 2 3 5 4 3 2 2 2 2 1 -1 0 -0 -1 -2 -3 -4 -14 -20 -23 -26 -28 -29
-5 -6 -8 -8 -8 -7 -8 -7 -7 -8 -9 -10 -8 -8 -9 -10 -10 -11 -10 -9 -6 3 4 4 3 3 2 2 2 2 1 1 -0 -1 -2 -4 -10 -14 -10 -9 -16 -27 -28 -28
-9 -11 -9 -9 -10 -11 -8 -11 -9 -7 -6 -5 -9 -4 -7 -9 -9 -9 -8 -8 -7 2 4 4 3 3 3 2 2 1 1 -0 -1 -4 -6 -8 -6 -6 -6 -10 -20 -26 -28 -28
-7 -10 -8 -7 -8 -10 -9 -10 -9 -7 -6 -6 -7 -7 -8 -10 -8 -8 -6 -5 -4 3 4 3 3 3 3 2 1 0 -0 -1 -4 -3 -4 -5 -6 -6 -13 -20 -25 -26 -26 -29
-10 -13 -12 -12 -11 -12 -12 -9 -8 -7 -6 -2 -6 -6 -7 -7 -6 -6 -4 -5 -4 -1 3 3 3 2 2 2 1 0 -1 -2 -5 -7 -8 -10 -11 -14 -19 -21 -18 -21 -24 -25
-8 -9 -11 -10 -9 -9 -9 -8 -1 -1 -1 -1 -7 -5 -5 -6 -8 -4 -4 -5 -4 -3 -0 2 2 2 2 1 1 -0 -2 -3 -6 -10 -13 -13 -15 -14 -16 -16 -15 -15 -17 -22
-8 -6 -12 -12 -11 -9 -8 -8 -1 -1 -1 -3 -9 -6 -2 -7 -5 -5 -6 -5 -3 -2 -1 1 2 2 1 1 1 -0 -2 -4 -7 -9 -10 -13 -17 -18 -16 -13 -15 -15 -17 -22
-6 -7 -11 -11 -13 -9 -7 -6 -9 -4 -3 -2 -4 -6 -8 -6 -4 -3 -4 -5 -2 -1 -0 0 1 1 1 0 0 -0 -2 -5 -6 -8 -11 -15 -13 -14 -16 -17 -17 -19 -21 -25
-7 -3 -8 -9 -11 -11 -9 -10 -4 -3 1 2 -3 -5 -3 -1 -1 -2 -1 -2 -4 -1 -1 0 1 1 1 1 1 -0 -2 -5 -7 -8 -11 -15 -15 -15 -17 -17 -17 -19 -23 -21
-9 -5 -5 -7 -5 -7 -6 -4 -6 -6 -4 -0 3 3 3 1 1 2 -2 -3 -1 -2 0 0 0 1 1 1 1 0 -2 -5 -6 -7 -10 -13 -16 -15 -15 -17 -18 -19 -21 -22
-8 -4 -1 -5 -7 -8 -7 -5 -5 0 0 0 4 3 -1 0 -2 -4 -5 -5 -3 -2 1 1 0 1 1 1 1 1 -1 -4 -5 -7 -9 -12 -14 -15 -16 -16 -18 -20 -20 -22
-5 -2 -2 -2 -5 -7 -7 -4 -1 -1 0 5 6 5 -4 -5 -4 -7 -6 -5 -6 -1 3 1 1 1 1 1 1 1 -0 -2 -5 -7 -8 -11 -15 -16 -17 -16 -21 -23 -23 -26
-7 -5 -2 1 -2 -3 -2 -4 -4 -2 3 5 3 -0 -2 -5 -5 -7 -8 -9 -9 -10 2 2 1 2 1 1 1 1 0 -1 -6 -6 -8 -11 -17 -19 -18 -22 -26 -29 -29 -30
-2 0 -3 -4 -5 -5 -4 -5 -4 -3 -2 4 2 -1 -4 -7 -8 -9 -11 -11 -11 -12 -6 2 1 3 2 2 2 1 1 0 -4 -5 -7 -11 -20 -20 -21 -25 -28 -29 -30 -32
-2 0 -0 1 -3 -4 -3 -4 -4 -5 -5 -5 -5 -5 -8 -9 -11 -11 -11 -11 -11 -11 -11 -10 1 2 3 2 2 1 1 -0 -3 -4 -5 -14 -18 -19 -20 -24 -26 -26 -30 -31
2 4 2 2 -1 -1 1 -1 -3 -5 -7 -7 -5 -7 -8 -7 -8 -9 -10 -10 -10 -9 -9 -7 -6 -0 1 2 2 1 1 -0 -3 -3 -5 -13 -10 -11 -17 -18 -18 -15 -21 -22
1 1 3 4 1 4 -1 -6 -6 -4 -5 -7 -7 -7 -6 -10 -11 -12 -9 -4 -5 -6 -7 -6 -5 -3 1 0 1 2 1 -0 -3 -4 -5 -7 -8 -9 -10 -14 -9 -9 -10 -9
-2 1 2 3 3 -1 -4 -7 -8 -4 -3 -3 -6 -8 -8 -7 -2 -0 3 3 2 1 1 1 -1 -2 1 1 1 1 0 -1 -3 -5 -5 -7 -7 -8 -6 -9 -10 -10 -9 -9
-3 -1 2 2 1 1 -5 -8 -7 -5 -1 -4 -6 -1 1 1 3 4 2 1 4 3 2 2 1 0 1 1 1 0 -1 -2 -4 -5 -5 -5 -5 -5 -10 -11 -11 -10 -9 -9
1 2 3 3 3 -1 -7 -8 -6 -1 -3 -5 -4 -4 -3 2 2 1 2 1 3 2 1 1 1 1 0 0 -0 -1 -2 -3 -5 -5 -4 -4 -5 -8 -12 -11 -10 -10 -10 -10
-3 3 2 2 2 2 1 -4 2 -3 -5 -1 -0 -3 -5 -2 -0 1 2 2 3 1 0 0 -0 -0 -0 -0 -1 -2 -3 -4 -4 -4 -5 -5 -7 -9 -12 -11 -10 -10 -10 -10
0 -2 0 0 -1 1 -0 -4 -6 -7 -5 -5 -4 -4 -4 -2 -2 -1 0 3 2 0 -0 -1 -1 -1 -2 -1 -1 -3 -3 -4 -4 -5 -5 -6 -7 -11 -11 -10 -10 -10 -10 -11
0 1 2 -3 -7 -8 -9 -8 -8 -7 -7 -4 -3 -5 -2 -2 -5 -1 1 3 3 0 -1 -1 -1 -2 -3 -3 -3 -3 -3 -4 -5 -5 -5 -6 -9 -11 -10 -9 -9 -10 -10 -12
2 -1 -3 -2 -5 -6 -7 -8 -8 -7 -6 -5 -5 -3 -1 0 -0 1 0 -1 2 0 -1 -1 -2 -2 -3 -4 -4 -5 -5 -6 -4 -5 -6 -8 -9 -10 -9 -8 -8 -8 -9 -11
-5 -6 -2 -0 -6 -5 -4 -6 -6 -7 -5 -4 -4 -5 -7 -1 0 1 1 0 1 0 -0 -2 -2 -3 -2 -3 -4 -6 -6 -4 -4 -6 -8 -8 -8 -9 -8 -8 -8 -8 -8 -8
Wind_Speed
18 15 15 18 16 19 19 18 17 19 22 24 19 19 16 16 21 18 16 24 25 22 20 21 19 21 20 16 15 13 14 14 13 12 10 9 9 7 6 5 3 2 3 4
17 18 17 14 16 14 12 20 21 21 20 18 20 23 18 14 18 23 23 20 29 29 26 23 20 18 16 15 14 13 12 13 11 11 12 12 12 9 4 3 2 2 2 2
14 16 10 8 12 15 15 14 18 21 19 18 19 24 19 18 24 28 20 19 7 34 33 30 26 20 17 15 16 12 11 14 14 19 18 16 10 7 5 3 1 1 2 3
8 9 6 11 15 13 17 15 15 14 14 15 15 18 17 13 14 14 16 10 6 30 34 30 26 23 20 18 16 15 15 18 18 12 10 10 6 14 12 7 1 2 3 4
12 14 11 16 18 17 19 13 15 14 17 18 18 13 17 15 15 14 11 15 12 24 32 30 28 24 21 19 19 17 17 15 17 19 17 18 19 15 10 4 2 1 2 2
21 26 19 18 16 18 16 15 20 17 15 15 19 17 18 15 6 5 17 16 13 19 27 27 25 23 23 22 20 18 18 18 17 17 16 16 14 11 8 6 4 3 2 1
21 22 21 22 19 16 18 16 11 11 13 13 18 16 15 8 7 14 13 17 16 16 21 25 28 27 25 24 22 22 16 15 15 14 14 13 12 12 10 10 7 4 2 3
18 22 16 20 23 18 16 17 12 16 13 15 18 12 6 8 16 12 15 22 21 17 16 20 26 27 27 24 21 18 20 16 15 14 13 13 12 13 12 9 9 8 6 3
19 26 23 20 18 9 14 17 20 20 20 16 16 22 22 13 13 11 11 9 13 15 16 19 23 25 29 24 23 22 19 16 16 16 15 15 15 13 13 12 10 8 5 4
17 17 21 19 25 20 19 16 13 11 15 21 15 18 8 8 10 4 4 7 5 13 14 18 23 25 26 24 24 22 21 21 18 17 16 16 16 15 12 11 10 9 7 6
16 14 17 19 21 21 13 14 18 17 14 13 11 9 12 8 11 6 4 4 6 5 15 16 20 26 26 27 26 25 24 23 21 18 17 17 17 15 14 12 10 8 8 8
19 15 15 20 21 25 22 18 17 12 14 15 12 12 3 13 8 11 12 13 17 15 19 22 23 28 29 29 27 27 28 27 24 21 20 19 18 16 15 13 11 10 10 10
13 10 11 14 16 20 21 12 14 16 11 15 10 8 9 4 5 4 2 17 19 11 19 26 25 29 32 28 27 28 29 28 27 25 22 22 20 20 17 14 11 11 12 10
4 11 15 12 14 13 18 19 17 18 9 10 12 15 14 15 7 6 9 18 24 11 20 24 30 28 33 33 32 31 30 26 29 26 26 22 19 19 15 13 12 12 11 10
15 17 17 21 23 23 24 21 19 19 17 9 16 18 20 15 14 16 18 17 22 16 13 23 29 33 35 36 33 32 31 28 27 28 26 23 20 20 17 15 13 13 13 13
15 17 17 19 20 23 23 22 20 21 21 19 18 21 21 29 29 24 26 23 16 13 12 16 26 31 35 39 37 36 33 30 28 27 25 25 21 19 18 16 15 14 14 14
13 1 8 21 19 21 17 21 21 22 22 20 19 18 16 19 19 19 12 13 16 15 16 17 21 32 36 36 39 36 34 30 28 25 24 23 21 20 19 16 16 14 14 14
18 17 9 6 10 8 11 13 18 21 21 19 18 21 19 17 19 14 14 15 18 16 18 14 13 18 36 31 33 33 34 31 29 25 22 23 25 21 19 19 18 16 14 15
19 17 12 12 13 16 24 17 13 10 14 18 11 16 13 9 11 13 16 17 10 6 4 3 9 11 30 29 28 34 33 31 29 27 28 26 23 27 22 21 20 20 18 16
23 21 14 10 12 15 14 4 4 4 6 12 13 3 4 15 6 4 18 15 12 3 1 3 7 14 23 23 28 33 33 30 30 30 29 30 27 20 23 23 22 20 18 18
5 9 16 13 10 12 15 10 5 6 1 4 4 8 12 5 2 11 4 12 9 3 4 7 10 15 17 20 27 31 30 31 32 30 30 22 21 23 23 23 22 21 21 21
7 4 5 5 8 14 21 2 3 8 3 8 8 14 12 10 12 15 11 10 12 9 8 10 13 16 19 23 27 30 31 33 31 29 24 24 24 24 25 25 23 23 24 23
10 10 5 6 2 10 19 4 12 12 7 6 7 10 7 6 12 15 19 13 15 14 12 12 15 18 20 22 25 29 29 28 28 27 26 25 24 24 25 26 25 23 23 22
4 8 6 5 4 9 13 11 13 13 14 8 12 14 8 10 13 19 15 20 19 19 18 17 17 18 20 22 24 24 25 28 29 26 27 26 26 25 24 25 23 22 20 18
6 7 4 6 9 14 16 17 19 16 15 13 15 10 15 14 16 13 15 20 17 20 21 19 20 20 20 22 23 26 27 29 25 28 27 27 26 24 23 22 21 20 16 14
12 9 5 7 11 8 18 14 15 19 10 15 18 14 15 15 19 12 15 16 16 19 18 20 19 20 21 22 23 23 26 29 29 28 27 27 26 23 23 22 22 19 15 17
Wind_Direction
270 263 248 267 297 302 305 296 288 288 298 301 296 291 280 262 274 215 211 185 180 194 184 176 173 170 175 176 174 169 180 166 150 140 140 135 149 156 149 134 124 92 41 21
244 249 263 277 292 293 282 288 286 285 280 274 280 275 276 284 269 265 204 211 181 176 172 165 174 174 178 170 176 188 181 145 136 148 159 166 156 169 150 106 90 57 39 0
260 279 313 262 282 278 273 271 281 282 294 292 292 280 273 251 252 259 263 190 182 167 164 162 170 178 184 182 186 185 174 158 169 188 186 183 161 131 96 68 175 92 40 21
280 283 314 279 265 263 270 267 285 296 284 277 279 288 280 264 244 240 167 157 164 166 156 159 172 181 187 189 185 182 177 180 190 175 169 129 111 151 177 201 241 43 20 13
255 287 238 243 258 272 276 293 276 272 279 284 271 266 274 268 253 210 154 134 133 145 154 165 175 181 186 191 184 188 190 184 176 171 182 164 179 193 197 189 161 50 37 352
281 274 273 282 276 284 288 274 277 264 265 254 263 260 272 269 10 106 114 136 150 150 155 166 175 181 183 188 181 188 184 194 189 188 175 184 185 182 176 162 169 175 228 306
273 267 254 240 250 255 266 263 273 263 242 248 249 247 245 137 118 136 133 140 150 160 167 170 171 178 184 185 186 198 192 190 187 180 180 185 180 177 173 164 176 170 209 249
275 282 269 273 251 240 257 248 232 270 274 278 292 283 350 95 114 120 145 159 156 162 168 173 175 181 187 184 190 185 190 198 184 180 183 179 176 170 169 178 167 185 209 215
284 281 299 280 301 218 246 259 286 274 265 276 279 284 294 172 132 127 150 148 139 158 172 183 182 186 191 191 189 188 192 193 184 181 180 172 171 177 182 179 183 192 190 172
292 295 285 292 290 261 251 270 274 277 278 264 268 280 280 81 92 65 66 59 106 170 176 185 187 188 190 191 192 191 190 193 184 182 182 179 178 186 179 170 183 187 178 182
301 288 279 278 268 271 259 227 253 260 262 268 257 270 134 220 128 202 256 205 165 184 180 186 190 188 191 190 192 190 191 195 189 183 178 186 184 182 179 184 184 184 179 176
289 302 281 272 283 289 293 266 270 273 245 274 300 271 151 163 198 197 198 191 192 181 187 185 189 186 188 192 191 191 196 200 192 184 191 188 186 183 187 189 189 185 184 183
295 271 286 290 279 271 265 339 333 306 311 227 236 260 271 176 177 245 286 324 311 225 184 188 185 186 189 190 192 193 202 201 192 190 194 198 193 190 198 197 193 189 195 194
296 266 262 254 263 296 288 292 287 291 273 314 280 290 286 285 299 298 143 264 281 293 185 192 191 196 197 196 191 198 208 207 191 200 201 205 197 197 192 196 195 195 191 189
266 268 263 267 266 269 276 280 283 274 266 242 285 279 286 297 301 308 304 288 280 266 215 202 204 196 202 199 193 197 211 214 196 205 206 203 195 196 195 193 193 192 186 182
265 250 251 262 262 265 270 267 261 259 261 267 262 272 279 279 278 280 278 275 274 273 264 266 211 200 204 206 195 196 208 210 199 208 205 195 196 193 187 186 191 185 182 177
282 207 250 252 253 259 258 251 252 262 263 269 269 275 303 287 276 280 307 297 282 264 248 237 243 209 209 210 199 196 205 203 193 205 201 191 186 190 180 186 187 180 175 168
253 258 241 270 279 255 259 245 243 243 253 266 273 263 250 272 287 286 307 299 288 271 252 237 254 211 206 209 198 195 202 198 191 193 195 180 184 185 180 182 177 175 169 161
233 249 257 255 255 273 274 279 279 268 252 287 296 294 295 314 344 360 26 342 340 298 286 226 219 199 186 194 183 190 194 191 186 185 188 183 182 187 186 174 178 173 173 167
222 227 229 237 255 260 274 264 250 92 266 232 254 22 36 332 319 25 358 323 332 332 182 195 215 149 168 169 175 187 188 188 184 188 189 190 201 187 175 176 173 175 170 171
235 246 225 224 244 260 266 300 84 234 130 51 0 322 356 44 252 300 282 281 285 247 172 147 137 150 160 171 180 182 182 181 183 191 198 199 175 181 179 176 176 171 176 183
234 231 219 223 246 266 3 268 142 312 142 63 32 340 341 348 351 339 327 258 261 216 175 149 145 153 163 174 183 174 179 185 194 199 195 176 178 180 180 181 176 180 188 196
271 242 224 191 215 180 200 224 294 291 298 301 308 293 289 320 318 310 326 264 239 208 176 162 158 160 162 165 173 181 190 197 193 186 178 178 174 180 183 180 179 190 201 206
188 313 252 255 262 299 309 296 282 292 305 291 274 282 263 268 320 293 309 304 230 201 179 164 162 163 165 171 174 179 185 181 186 180 172 176 180 181 184 185 186 191 209 202
215 242 278 283 303 305 300 302 307 301 296 303 283 276 252 247 265 267 286 324 276 191 186 180 168 172 171 174 174 181 188 177 177 169 174 177 179 185 181 183 188 196 216 204
272 276 296 287 282 284 284 289 292 289 283 285 277 283 300 241 258 264 299 299 238 191 187 171 169 172 173 173 175 184 177 174 173 172 176 180 183 179 182 181 186 193 215 199
Height
1469 1467 1463 1455 1449 1446 1449 1452 1451 1444 1439 1436 1433 1430 1428 1431 1432 1434 1437 1441 1449 1459 1466 1472 1478 1481 1483 1485 1487 1488 1488 1490 1493 1495 1497 1498 1499 1499 1500 1501 1502 1503 1504 1505
1462 1461 1450 1450 1450 1448 1449 1456 1456 1445 1438 1439 1436 1429 1426 1427 1427 1424 1428 1433 1438 1448 1459 1468 1477 1480 1483 1486 1489 1490 1490 1491 1494 1497 1499 1499 1499 1499 1499 1500 1501 1501 1502 1503
1456 1448 1444 1449 1453 1452 1449 1450 1449 1449 1441 1438 1439 1432 1428 1422 1420 1419 1419 1424 1433 1439 1449 1459 1468 1476 1482 1485 1488 1490 1491 1492 1494 1493 1494 1495 1497 1498 1499 1499 1499 1501 1501 1502
1451 1445 1448 1452 1452 1448 1448 1439 1440 1442 1446 1447 1434 1436 1421 1411 1405 1405 1416 1422 1428 1436 1444 1456 1466 1472 1478 1482 1486 1488 1489 1489 1490 1492 1492 1494 1495 1497 1498 1498 1498 1499 1500 1500
1453 1445 1445 1448 1447 1441 1439 1436 1436 1440 1441 1440 1434 1436 1408 1405 1405 1404 1411 1421 1429 1436 1443 1452 1460 1467 1475 1480 1483 1484 1486 1487 1487 1488 1489 1492 1492 1494 1494 1496 1497 1498 1499 1500
1452 1449 1445 1440 1441 1440 1438 1441 1440 1437 1438 1439 1427 1428 1411 1410 1407 1393 1411 1423 1430 1437 1443 1450 1457 1465 1472 1474 1478 1481 1483 1483 1483 1485 1487 1488 1490 1491 1493 1495 1496 1497 1497 1499
1446 1439 1435 1436 1439 1439 1440 1445 1457 1453 1446 1432 1410 1408 1402 1398 1404 1410 1416 1423 1430 1436 1441 1447 1453 1461 1468 1470 1473 1477 1480 1481 1481 1483 1485 1487 1488 1490 1491 1493 1495 1496 1497 1496
1449 1444 1435 1429 1427 1430 1435 1437 1448 1454 1442 1424 1398 1406 1404 1394 1403 1413 1416 1422 1428 1434 1438 1446 1451 1458 1463 1466 1471 1475 1477 1478 1479 1482 1483 1485 1486 1489 1491 1492 1493 1493 1495 1497
1446 1438 1425 1426 1423 1425 1432 1437 1427 1429 1423 1432 1418 1409 1391 1394 1404 1414 1421 1424 1428 1433 1437 1444 1449 1455 1459 1463 1468 1472 1475 1476 1477 1478 1481 1483 1484 1488 1488 1490 1490 1492 1495 1495
1439 1445 1431 1428 1427 1423 1425 1424 1436 1432 1442 1440 1422 1413 1406 1412 1413 1418 1424 1424 1426 1432 1436 1441 1447 1452 1455 1461 1465 1469 1473 1474 1474 1476 1479 1481 1483 1485 1487 1488 1489 1491 1492 1493
1438 1439 1434 1433 1428 1425 1422 1428 1425 1423 1425 1432 1437 1430 1418 1420 1422 1425 1422 1424 1427 1431 1435 1439 1445 1449 1453 1457 1461 1465 1469 1469 1470 1473 1477 1478 1480 1482 1485 1485 1487 1489 1491 1493
1445 1442 1441 1433 1426 1423 1422 1422 1424 1431 1429 1427 1431 1423 1410 1414 1418 1419 1422 1423 1424 1427 1428 1433 1438 1444 1450 1454 1457 1460 1463 1465 1467 1471 1473 1475 1477 1480 1482 1483 1485 1487 1491 1492
1446 1445 1445 1441 1430 1422 1419 1427 1434 1430 1430 1443 1442 1432 1410 1411 1412 1417 1418 1421 1421 1422 1425 1429 1435 1438 1443 1449 1455 1458 1458 1462 1465 1466 1468 1471 1475 1477 1478 1481 1483 1485 1489 1490
1449 1447 1446 1448 1438 1433 1432 1435 1434 1436 1437 1438 1425 1417 1412 1408 1408 1414 1415 1424 1418 1419 1420 1425 1430 1434 1436 1441 1448 1452 1454 1457 1461 1463 1465 1467 1472 1475 1478 1479 1482 1484 1488 1491
1450 1446 1443 1438 1434 1433 1429 1426 1429 1428 1425 1440 1430 1425 1413 1409 1408 1408 1410 1411 1413 1413 1416 1417 1422 1425 1430 1435 1442 1446 1448 1453 1457 1458 1462 1466 1468 1472 1475 1477 1480 1484 1486 1490
1438 1434 1441 1440 1434 1430 1427 1420 1421 1419 1418 1415 1416 1414 1408 1407 1405 1404 1404 1404 1405 1406 1409 1412 1414 1419 1423 1428 1433 1438 1440 1447 1453 1455 1457 1462 1466 1469 1472 1476 1479 1482 1485 1488
1440 1443 1437 1430 1430 1425 1425 1412 1413 1410 1407 1407 1407 1401 1399 1399 1398 1398 1397 1399 1400 1402 1404 1406 1409 1409 1412 1419 1426 1432 1435 1443 1449 1452 1455 1460 1464 1466 1470 1475 1478 1481 1484 1487
1430 1431 1437 1429 1424 1427 1399 1399 1398 1398 1397 1397 1397 1396 1395 1393 1392 1393 1395 1394 1396 1397 1397 1399 1403 1403 1404 1412 1420 1428 1432 1439 1445 1451 1454 1459 1462 1465 1469 1473 1477 1481 1484 1487
1420 1421 1423 1426 1419 1408 1394 1392 1389 1395 1395 1399 1389 1391 1390 1391 1391 1395 1397 1401 1397 1395 1395 1396 1399 1402 1403 1409 1415 1422 1428 1435 1442 1449 1452 1457 1460 1463 1465 1471 1475 1480 1483 1487
1402 1406 1416 1415 1415 1407 1387 1386 1387 1390 1395 1390 1394 1393 1397 1401 1398 1402 1404 1403 1399 1397 1396 1397 1397 1402 1404 1409 1414 1419 1426 1432 1440 1445 1449 1453 1456 1461 1466 1471 1475 1479 1482 1486
1398 1401 1404 1405 1409 1394 1387 1385 1387 1398 1393 1387 1391 1393 1394 1398 1406 1403 1402 1405 1400 1399 1400 1398 1398 1402 1405 1409 1414 1419 1425 1431 1437 1442 1446 1452 1456 1461 1466 1470 1474 1478 1481 1483
1391 1401 1397 1396 1401 1398 1393 1390 1405 1388 1386 1389 1392 1396 1397 1397 1398 1400 1400 1399 1401 1401 1399 1399 1400 1403 1406 1408 1412 1419 1424 1429 1435 1440 1446 1451 1456 1460 1465 1468 1472 1475 1477 1479
1388 1383 1385 1388 1384 1388 1389 1386 1388 1386 1387 1387 1389 1392 1394 1396 1397 1398 1399 1398 1398 1398 1398 1399 1401 1403 1407 1410 1412 1416 1422 1428 1433 1438 1444 1449 1454 1459 1463 1466 1470 1471 1474 1477
1392 1389 1389 1380 1377 1379 1381 1383 1383 1384 1382 1386 1387 1388 1389 1392 1392 1394 1393 1393 1393 1394 1395 1396 1399 1403 1405 1409 1413 1416 1419 1426 1430 1437 1443 1448 1452 1456 1460 1464 1468 1470 1471 1473
1393 1384 1379 1377 1379 1380 1381 1381 1381 1381 1381 1383 1383 1385 1385 1386 1385 1387 1388 1388 1383 1389 1393 1391 1393 1399 1403 1407 1412 1415 1418 1424 1430 1436 1441 1446 1450 1454 1459 1462 1466 1468 1470 1472
1381 1376 1377 1378 1379 1380 1383 1380 1381 1380 1379 1381 1382 1382 1382 1382 1381 1382 1383 1382 1380 1387 1392 1391 1392 1397 1402 1406 1411 1414 1418 1424 1429 1434 1440 1444 1448 1453 1457 1460 1463 1466 1469 1471